Location: Donaueschingen
(47.9515°N, 8.4976°E)
Time: 09:15:41
(UTC+01:00)

ISS - Visible Passes

Search period start: 10 December 2025 00:00
Search period end: 20 December 2025 00:00
Orbit: 416 x 420 km, 51.6° (Epoch: 09 December)

Date Brightness Start Highest point End Pass type
(mag) Time Alt. Az. Time Alt. Az. Time Alt. Az.
11 Dec -0.5 07:14:00 10° S 07:16:02 15° SE 07:18:06 10° E visible
13 Dec -1.9 07:13:32 10° SSW 07:16:37 34° SE 07:19:43 10° ENE visible
14 Dec -1.3 06:26:05 10° SSW 06:28:46 22° SE 06:31:29 10° E visible
15 Dec -0.8 05:38:59 10° S 05:40:58 15° SE 05:42:57 10° E visible
15 Dec -3.5 07:13:54 10° WSW 07:17:17 74° SSE 07:20:39 10° ENE visible
16 Dec -2.9 06:26:43 15° SW 06:29:17 50° SSE 06:32:34 10° ENE visible
17 Dec -2.2 05:41:18 33° SE 05:41:19 33° SE 05:44:23 10° E visible
17 Dec -3.7 07:14:37 10° W 07:17:58 63° NNW 07:21:20 10° ENE visible
18 Dec -0.3 04:55:37 12° E 04:55:37 12° E 04:56:02 10° E visible
18 Dec -3.9 06:28:35 36° WSW 06:29:51 82° NNW 06:33:14 10° ENE visible
19 Dec -2.6 05:42:43 42° E 05:42:43 42° E 05:45:06 10° ENE visible
19 Dec -3.3 07:15:39 12° W 07:18:40 45° N 07:21:55 10° ENE visible
